Saginaw, MI

11:03 AM EDT on September 23, 2017 (GMT -0400)
MBS International

Weather History for KMBS - November, 2012

Change the Weather History Date:

Tuesday, November 27, 2012

  Actual Average Record
Temperature  
Mean Temperature 26 °F 34 °F  
Max Temperature 33 °F 40 °F 61 °F (2015)
Min Temperature 18 °F 27 °F 15 °F (2002)
Degree Days  
Heating Degree Days 40    
Month to date heating degree days  
Since 1 July heating degree days  
Cooling Degree Days 0    
Month to date cooling degree days  
Year to date cooling degree days  
Moisture  
Dew Point 17 °F    
Average Humidity 68    
Maximum Humidity 78    
Minimum Humidity 56    
Precipitation  
Precipitation 0.00 in 0.08 in 0.63 in (2004)
Month to date precipitation 2.47  
Year to date precipitation 29.45  
Snow  
Snow 0.00 in - - ()
Month to date snowfall  
Since 1 July snowfall  
Since 1 September snowfall  
Snow Depth -    
Sea Level Pressure  
Sea Level Pressure 30.31 in    
Wind  
Wind Speed 7 mph (WSW)    
Max Wind Speed 14 mph    
Max Gust Speed 21 mph    
Visibility 10 miles    
Events      
T = Trace of Precipitation, MM = Missing Value Source: NWS Daily Summary

Daily Weather History Graph

Daily Weather History Graph

Search for Another Location

Airport or City:

Trip Planner

Search our weather history database for the weather conditions in past years. The results will help you decide how hot, cold, wet, or windy it might be!

Date:

Astronomy

Nov. 27, 2012 Rise Set
Actual Time 7:45 AM EST 5:02 PM EST
Civil Twilight 7:13 AM EST 5:34 PM EST
Nautical Twilight 6:38 AM EST 6:09 PM EST
Astronomical Twilight 6:03 AM EST 6:44 PM EST
Moon 4:33 PM EST (11/27) 6:49 AM EST (11/27)
Length of Visible Light 10h 20m
Length of Day
9h 16m
Waxing Gibbous, 99% of the Moon is Illuminated
Nov 27
Waxing Gibbous
Nov 28
Full
Dec 6
Last Quarter
Dec 13
New
Dec 20
First Quarter

Hourly Weather History & Observations

Time (EST) Temp. Windchill Dew Point Humidity Pressure Visibility Wind Dir Wind Speed Gust Speed Precip Events Conditions
12:03 AM 28.4 °F 20.4 °F 19.4 °F 69% 30.29 in 10.0 mi NW 8.1 mph - N/A   Overcast
12:53 AM 25.0 °F 18.1 °F 17.1 °F 72% 30.32 in 10.0 mi WNW 5.8 mph - N/A   Clear
1:53 AM 23.0 °F 17.0 °F 15.1 °F 72% 30.32 in 10.0 mi West 4.6 mph - N/A   Clear
2:53 AM 21.9 °F 15.7 °F 14.0 °F 72% 30.33 in 10.0 mi West 4.6 mph - N/A   Clear
3:53 AM 19.9 °F 12.1 °F 12.9 °F 74% 30.33 in 10.0 mi West 5.8 mph - N/A   Clear
4:53 AM 19.9 °F 11.1 °F 12.9 °F 74% 30.34 in 10.0 mi West 6.9 mph - N/A   Clear
5:53 AM 18.0 °F 9.8 °F 12.0 °F 78% 30.34 in 10.0 mi West 5.8 mph - N/A   Clear
6:53 AM 18.0 °F 9.8 °F 12.0 °F 78% 30.35 in 10.0 mi West 5.8 mph - N/A   Clear
7:53 AM 19.0 °F 10.0 °F 12.9 °F 77% 30.36 in 10.0 mi West 6.9 mph - N/A   Clear
8:53 AM 21.9 °F 13.4 °F 15.1 °F 75% 30.37 in 10.0 mi West 6.9 mph - N/A   Clear
9:53 AM 26.1 °F 19.4 °F 17.1 °F 69% 30.36 in 10.0 mi West 5.8 mph - N/A   Clear
10:53 AM 28.9 °F 22.8 °F 18.0 °F 64% 30.37 in 10.0 mi WSW 5.8 mph - N/A   Clear
11:53 AM 30.9 °F 21.7 °F 18.0 °F 59% 30.37 in 10.0 mi WSW 11.5 mph - N/A   Clear
12:53 PM 32.0 °F 23.6 °F 18.0 °F 56% 30.34 in 10.0 mi SW 10.4 mph - N/A   Clear
1:53 PM 33.1 °F 23.9 °F 19.0 °F 56% 30.32 in 10.0 mi SW 12.7 mph - N/A   Clear
2:53 PM 33.1 °F 23.4 °F 19.0 °F 56% 30.30 in 10.0 mi WSW 13.8 mph 20.7 mph N/A   Clear
3:53 PM 33.1 °F 24.4 °F 19.0 °F 56% 30.28 in 10.0 mi SW 11.5 mph - N/A   Clear
4:53 PM 32.0 °F 26.4 °F 19.0 °F 59% 30.28 in 10.0 mi WSW 5.8 mph - N/A   Clear
5:53 PM 28.9 °F 22.8 °F 19.0 °F 67% 30.27 in 10.0 mi SW 5.8 mph - N/A   Clear
6:53 PM 28.9 °F 21.9 °F 19.0 °F 67% 30.27 in 10.0 mi SW 6.9 mph - N/A   Clear
7:53 PM 27.0 °F 18.7 °F 19.0 °F 72% 30.27 in 10.0 mi SW 8.1 mph - N/A   Clear
8:53 PM 27.0 °F 18.7 °F 19.0 °F 72% 30.25 in 10.0 mi SW 8.1 mph - N/A   Clear
9:53 PM 27.0 °F 18.0 °F 19.0 °F 72% 30.25 in 10.0 mi SW 9.2 mph - N/A   Clear
10:53 PM 27.0 °F 18.0 °F 19.0 °F 72% 30.22 in 10.0 mi SSW 9.2 mph - N/A   Clear
11:53 PM 28.0 °F 18.1 °F 19.9 °F 72% 30.22 in 10.0 mi SW 11.5 mph - N/A   Clear